STARLINK-33829, 63496

Orbit data source: Space-Track

STARLINK-33829, 63496 is a payload satellite owned by SpaceX/Seattle (US) in LEO that was launched on Mon, 07 Apr 2025 UTC via an FALCON 9 launch vehicle from the Air Force Western Test Range (AFWTR). Payload-class satellites include a variety of spacecraft equipped with specific instruments for various scientific and technological missions. These include communications satellites like Starlink; space stations such as the ISS; scientific satellites like the Hubble; Earth observation satellites from companies like Planet Labs, Umbra, and HawkEye 360; GPS; miniature CubeSats for education and research; and military/defense satellites.

Loading next visibility...
Identifier
63496, 2025-071D
Orbit
LEO
Country
Flag of USUS
Related business
Manufacturer
SpaceX/Seattle
Mission
Operational Commercial Communications
Bus & Motor
STARLINK V2MO, Unknown motor
Mass
575 kg wet, ~530 kg dry
Launch date (UTC)
2025-04-07 (5 months ago)
Launch vehicle
FALCON 9
Launch site
Air Force Western Test Range (AFWTR)
Object type
Payload
Rocket body
Debris
Shape & HBR
Box + 1 Pan, 14.5 m
Radar Cross Section
41.120 m², Large (>1 m²)

Expand to show TLE details & history
Last TLE update: 1 day ago

TLE from 1 day ago
0 STARLINK-33829
1 63496U 25071D   25259.65179612  .00024776  00000-0  84573-3 0  9999
2 63496  53.1575 228.3321 0001243  97.5740 262.5402 15.30204979 26064
Epoch: 2025-09-16T15:38Z
TLE epoch observation values (Epoch: 2025-09-16T15:38:35.184Z)
Latitude
-0.00003°
Longitude
-2.15356°
Altitude
476.21 km
Speed
7.629 km/s
True Right ascension
15h 13m 19s
True Declination
0° 00' 00"
Sunlit
Object was in daylight at epoch
Visualization orbit readout
Latitude
Unknown
Longitude
Unknown
Altitude
Unknown
Speed
Unknown
Apparent Right ascension
Unknown
Apparent Declination
Unknown
Sunlit
N/A
Visualization observer readout
Local Sidereal Time
16:15:51
Azimuth
Unknown
Elevation
Unknown
Doppler factor
Unknown
Orbital elements
Apogee altitude
476.309 km
Perigee altitude
474.605 km
Semi-major axis
6,853.594 km
Eccentricity
0.00012
Inclination
53.1575°
RAAN
228.3321°
Arg. of periapsis
97.574°
True anomaly
262.52608°
Mean anomaly
262.5402°
Eccentric anomaly
262.53314°
Mean motion
3.8253 °/min
Orbital period
94.11 mins
BSTAR
0.00084573
Loading maneuver chart data...
Computing Atmospheric mass density...
Loading historical data...
Loading historical data...
Loading historical data...
Loading historical data...
Loading historical data...
Loading historical data...
Loading historical data...

Documentation

Showing up to 5 results
|